Terminal Aerodrome Forecast
Issued by NWS

Home | Current Version | Previous Version | Text Only | Print | Product List | Glossary Off
Versions: 1 2 3 4 5 6 7 8 9 10 11 12 13

000
FTUS42 KMHX 221100
TAFISO
TAF
KISO 221139Z 2212/2312 21007KT P6SM BKN150
     FM222000 25010G17KT P6SM VCSH BKN080
     FM230300 30006KT P6SM SKC
      AMD LTD TO CLD VIS AND WIND=

USA.gov is the U.S. government's official web portal to all federal, state and local government web resources and services.